Location: Casilda
(33.0440°S, 61.1680°W)
Time: 23:32:04
(UTC-03:00)

ISS - Pass Details

Date: 08 May 2021
Orbit: 417 x 422 km, 51.6° (Epoch: 12 May)

Event Time Altitude Azimuth Distance (km) Brightness Sun altitude
Rises 20:28:59 0° 241° (WSW) 2,385 0.9 -27.5°
Reaches altitude 10° 20:31:26 10° 258° (WSW) 1,512 0.0 -28.0°
Enters shadow 20:33:22 19° 291° (WNW) 1,067 -1.0 -28.4°
